Weather History for LIMH - November, 2013

Change the Weather History Date:

Thursday, November 14, 2013

  Actual Average Record
Temperature  
Mean Temperature 15 °F -  
Max Temperature 25 °F 21 °F 32 °F (2011)
Min Temperature 5 °F 11 °F -7 °F (2004)
Degree Days  
Heating Degree Days 50    
Moisture  
Dew Point 16 °F    
Average Humidity 89    
Maximum Humidity 100    
Minimum Humidity 61    
Precipitation  
Precipitation 0.03 in - - ()
Sea Level Pressure  
Sea Level Pressure 30.01 in    
Wind  
Wind Speed 8 mph ()    
Max Wind Speed 23 mph    
Max Gust Speed 38 mph    
Visibility 2.7 miles    
Events Fog , Snow    
Averages and records for this station are not official NWS values.
T = Trace of Precipitation, MM = Missing Value Source: Averaged Metar Reports

Daily Weather History Graph

Daily Weather History Graph

Search for Another Location

Airport or City:

Trip Planner

Search our weather history database for the weather conditions in past years. The results will help you decide how hot, cold, wet, or windy it might be!

Date:

Astronomy

Nov. 14, 2013 Rise Set
Actual Time 7:28 AM CET 4:58 PM CET
Civil Twilight 6:55 AM CET 5:30 PM CET
Nautical Twilight 6:19 AM CET 6:07 PM CET
Astronomical Twilight 5:44 AM CET 6:42 PM CET
Moon 3:18 PM CET (11/14) 3:56 AM CET (11/14)
Length of Visible Light 10h 35m
Length of Day
9h 30m
Waxing Gibbous, 90% of the Moon is Illuminated
Nov 14
Waxing Gibbous
Nov 17
Full
Nov 25
Last Quarter
Dec 3
New
Dec 9
First Quarter

Hourly Weather History & Observations

Time (CET) Temp. Windchill Dew Point Humidity Pressure Visibility Wind Dir Wind Speed Gust Speed Precip Events Conditions
12:00 AM 23 °F - 19 °F 80%  in 9 mi SW 8.1 mph - -   Clear
12:55 AM 23.0 °F 12.4 °F 19.4 °F 86% 30.27 in - SSW 10.4 mph - N/A   Clear
1:00 AM 23 °F - 20 °F 81%  in 9 mi SSW 10.4 mph - -   Clear
1:55 AM 23.0 °F 10.6 °F 21.2 °F 93% 30.24 in 6.2 mi SSW 13.8 mph - N/A   Scattered Clouds
2:55 AM 23.0 °F 10.1 °F 21.2 °F 93% 30.24 in 6.2 mi SW 15.0 mph - N/A   Mostly Cloudy
3:00 AM 23 °F - 22 °F 95%  in 6 mi SW 15.0 mph - -   Mostly Cloudy
3:55 AM 23.0 °F 13.1 °F 23.0 °F 100% 30.21 in 6.2 mi SW 9.2 mph - N/A   Mostly Cloudy
4:00 AM 23 °F - 22 °F 96%  in 6 mi SW 9.2 mph - -   Mostly Cloudy
4:55 AM 23.0 °F 15.8 °F 23.0 °F 100% 30.21 in 6.2 mi WSW 5.8 mph - N/A   Mostly Cloudy
5:00 AM 23 °F - 22 °F 95%  in 6 mi WSW 5.8 mph - -   Mostly Cloudy
5:55 AM 23.0 °F 14.7 °F 21.2 °F 93% 30.18 in 6.2 mi SW 6.9 mph - N/A   Mostly Cloudy
6:00 AM 22 °F - 21 °F 94%  in 6 mi SW 6.9 mph - -   Mostly Cloudy
6:55 AM 21.2 °F 13.6 °F 21.2 °F 100% 30.15 in 0.2 mi SW 5.8 mph - N/A Fog Light Freezing Fog
7:00 AM 22 °F - 21 °F 92%  in 0 mi SW 5.8 mph - - Fog Heavy Fog
7:55 AM 19.4 °F 9.5 °F 17.6 °F 93% 30.15 in 6.2 mi ENE 8.1 mph - N/A   Mostly Cloudy
8:00 AM 20 °F - 18 °F 89%  in 6 mi ENE 8.1 mph - - Fog Light Fog
8:55 AM 21.2 °F - 17.6 °F 86% 30.12 in 6.2 mi SW 2.3 mph - N/A   Mostly Cloudy
9:00 AM 20 °F - 17 °F 82%  in 6 mi SW 2.3 mph - -   Partly Cloudy
9:55 AM 23.0 °F 14.7 °F 19.4 °F 86% 30.12 in 6.2 mi SW 6.9 mph - N/A   Mostly Cloudy
10:00 AM 23 °F - 19 °F 79%  in 6 mi SW 6.9 mph - -   Scattered Clouds
10:55 AM 23.0 °F 14.7 °F 19.4 °F 86% 30.09 in 0.4 mi SW 6.9 mph - N/A Fog Light Freezing Fog
11:00 AM 24 °F - 20 °F 78%  in 0 mi SW 6.9 mph - - Fog Heavy Fog
11:55 AM 24.8 °F - 15.8 °F 69% 30.06 in 0.4 mi Variable 1.2 mph - N/A Fog Light Freezing Fog
12:00 PM 24 °F - 16 °F 61%  in 0 mi 1.2 mph - - Fog Heavy Fog
12:55 PM 24.8 °F 20.5 °F 19.4 °F 80% 30.01 in 0.1 mi Variable 3.5 mph - N/A Fog Light Freezing Fog
1:00 PM 25 °F - 19 °F 70%  in 0 mi 3.5 mph - - Fog Heavy Fog
1:55 PM 23.0 °F 17.0 °F 17.6 °F 80% 29.98 in 0.1 mi SSW 4.6 mph - N/A Fog Light Freezing Fog
2:00 PM 24 °F - 18 °F 70%  in 0 mi SSW 4.6 mph - - Fog Heavy Fog
2:55 PM 21.2 °F 13.6 °F 17.6 °F 86% 29.95 in 0.1 mi SSW 5.8 mph - N/A Fog Light Freezing Fog
3:00 PM 22 °F - 18 °F 79%  in 0 mi SSW 5.8 mph - - Fog Heavy Fog
3:55 PM 19.4 °F 11.5 °F 19.4 °F 100% 29.89 in 0.1 mi South 5.8 mph - N/A Fog Light Freezing Fog
4:00 PM 20 °F - 20 °F 97%  in 0 mi South 5.8 mph - - Fog Heavy Fog
4:55 PM 17.6 °F 8.2 °F 17.6 °F 100% 29.86 in 0.1 mi SSW 6.9 mph - N/A Fog Light Freezing Fog
5:55 PM 14.0 °F 8.2 °F 10.4 °F 86% 29.86 in 0.1 mi Variable 3.5 mph - N/A Fog Light Freezing Fog
6:00 PM 14 °F - 11 °F 80%  in 0 mi 3.5 mph - - Fog Heavy Fog
6:55 PM 8.6 °F -8.9 °F 8.6 °F 100% 29.80 in 0.1 mi ENE 16.1 mph - N/A Fog , Snow Light Snow
7:00 PM 9 °F - 9 °F 100%  in 0 mi ENE 16.1 mph - - Snow Light Snow
7:55 PM 6.8 °F -11.3 °F 5.0 °F 92% 29.77 in 0.1 mi ENE 16.1 mph - N/A Fog , Snow Light Snow
9:55 PM 5.0 °F -15.7 °F 5.0 °F 100% 29.71 in 0.0 mi NE 20.7 mph 35.7 mph N/A Fog , Snow Light Snow
10:00 PM 5 °F - 4 °F 95%  in 0 mi NE 20.7 mph - - Snow Light Snow
10:55 PM 5.0 °F -15.7 °F 3.2 °F 92% 29.71 in 0.0 mi NE 20.7 mph 32.2 mph N/A Fog , Snow Light Snow
11:00 PM 5 °F - 4 °F 93%  in 0 mi NE 20.7 mph - - Snow Light Snow
11:55 PM 5.0 °F -16.7 °F 5.0 °F 100% 29.68 in 0.0 mi NE 23.0 mph 38.0 mph N/A Fog , Snow Light Snow